Location: Unspecified
(0.0000°N, 0.0000°E)
Time: 20:31:35
(UTC+00:00)

DMSP 5D-2 F13 DEB - Pass Details

Date: 06 March 2026
Orbit: 780 x 797 km, 98.7° (Epoch: 11 April)

Event Time Altitude Azimuth Distance (km) Brightness Sun altitude
Rises 18:28:39 0° 147° (SSE) 3,263 ? -4.3°
Reaches altitude 10° 18:31:14 10° 136° (SE) 2,334 ? -5.0°
Maximum altitude 18:35:38 29° 77° (ENE) 1,409 ? -6.1°
Drops below altitude 10° 18:40:01 10° 19° (NNE) 2,332 ? -7.2°
Sets 18:42:36 0° 8° (N) 3,261 ? -7.8°
